Showing default

COSMOS 2530, 43751

Orbit data source: Space-Track

COSMOS 2530, 43751 is a payload satellite owned by VVKO VKS (CIS) in LEO that was launched on Fri, 30 Nov 2018 UTC via an ROKOT launch vehicle from the Plesetsk Missile And Space Complex (PKMTR). Payload-class satellites include a variety of spacecraft equipped with specific instruments for various scientific and technological missions. These include communications satellites like Starlink; space stations such as the ISS; scientific satellites like the Hubble; Earth observation satellites from companies like Planet Labs, Umbra, and HawkEye 360; GPS; miniature CubeSats for education and research; and military/defense satellites.

Loading next visibility...
Identifier
43751, 2018-097A
Orbit
LEO
Country
Flag of CISCIS
Related business
Manufacturer
Resehetnev ISS
Mission
Operational Defense Communications
Bus & Motor
STRELA-3M, Unknown motor
Mass
280 kg wet, 280 kg dry
Launch date (UTC)
2018-11-30 (8 years ago)
Launch vehicle
ROKOT
Launch site
Plesetsk Missile And Space Complex (PKMTR)
Object type
Payload
Rocket body
Debris
Shape & HBR
Cyl + 1 Ant, 3.5 m
Radar Cross Section
1.583 m², Large (>1 m²)

Expand to show TLE details & history
Last TLE update: 9 hours ago

TLE from 9 hours ago
0 COSMOS 2530
1 43751U 18097A   26172.16011145  .00000012  00000-0  11820-4 0  9991
2 43751  82.5129 219.8153 0020021  31.2896 328.9371 12.42881421342782
Epoch: 2026-06-21T03:50Z
TLE epoch observation values (Epoch: 2026-06-21T03:50:33.629Z)
Latitude
0.00001°
Longitude
-107.18919°
Altitude
1,483.617 km
Speed
7.128 km/s
True Right ascension
14h 39m 15s
True Declination
0° 00' 00"
Sunlit
Object was in full shadow at epoch
Visualization orbit readout
Latitude
Unknown
Longitude
Unknown
Altitude
Unknown
Speed
Unknown
Apparent Right ascension
Unknown
Apparent Declination
Unknown
Sunlit
N/A
Visualization observer readout
Local Sidereal Time
00:10:20
Azimuth
Unknown
Elevation
Unknown
Doppler factor
Unknown
Orbital elements
Apogee altitude
1,507.519 km
Perigee altitude
1,476.007 km
Semi-major axis
7,869.9 km
Eccentricity
0.002
Inclination
82.5129°
RAAN
219.8153°
Arg. of periapsis
31.2896°
True anomaly
328.81847°
Mean anomaly
328.9371°
Eccentric anomaly
328.87781°
Mean motion
3.10878 °/min
Orbital period
115.8 mins
BSTAR
0.00001182
Loading maneuver chart data...
Computing Atmospheric mass density...
Loading historical data...
Loading historical data...
Loading historical data...
Loading historical data...
Loading historical data...
Loading historical data...
Loading historical data...
Other satellites on launch #97 in the year 2018 (2018-11-30 UTC)

Documentation

Showing up to 5 results
|